www.pogodaiklimat.ru
Время
и дата
13:46 07.12
13:56 07.12
14:11 07.12
14:19 07.12
14:36 07.12
14:52 07.12
14:56 07.12
15:53 07.12
15:56 07.12
16:04 07.12
16:12 07.12
16:29 07.12
16:56 07.12
17:07 07.12
17:23 07.12
17:36 07.12
17:56 07.12
18:56 07.12
19:56 07.12
20:56 07.12
21:56 07.12
22:56 07.12
23:56 07.12
00:56 08.12
01:56 08.12
02:56 08.12
03:56 08.12
04:56 08.12
05:56 08.12
06:56 08.12
07:56 08.12
08:56 08.12
09:56 08.12
10:56 08.12
11:56 08.12
12:56 08.12
13:56 08.12
14:56 08.12
15:56 08.12
16:56 08.12
17:56 08.12
18:56 08.12
19:56 08.12
20:56 08.12
21:56 08.12
22:56 08.12
23:56 08.12
00:56 09.12
Ветер
(напр.,м/с)
Видим. Явления Облачность Т
(С)
Тd
(С)
f
(%)
Тe
(С)
Тes
(С)
Комфортность P
(гПа)
Po
(гПа)
Тmin
(С)
Tmax
(С)
R
(мм)
R24
(мм)
S
(см)
В 1 16 км 10/10 210 м +4.4 +2.2 86 +2 +2 965.1
СВ 1 16 км 10/10 210 м +4.4 +2.2 86 +2 +2 1017.9 965.1
В 1 16 км 10/10 510 м +4.4 +2.2 86 +2 +2 964.8
В 1 16 км 10/10 240 м +4.4 +2.2 86 +2 +2 964.8
В 1 16 км 10/10 210 м +5.0 +2.2 82 +2 +2 965.1
нст 1 16 км 10/10 210 м +5.0 +2.0 81 +2 +2 965.1
СЗ 1 16 км 10/10 210 м +5.0 +2.8 86 +2 +2 1017.8 965.1
СЗ 1 3 км дымка 10/10 180 м +4.0 +3.0 93 +1 +1 964.4
штиль 0 3 км дымка 10/10 180 м +3.9 +2.8 93 +3 +3 1017.2 964.4 +3.3 +5.0
штиль 0 3 км дымка 10/10 150 м +3.9 +2.8 93 +3 +3 964.4
штиль 0 3 км дымка 10/8 150 м
[Ac]
+3.9 +2.8 93 +3 +3 964.4
штиль 0 5 км дымка 10/8 150 м
[Ac]
+3.9 +2.2 89 +3 +3 964.1
В 1 8 км дымка 10/8 150 м
[Ac]
+4.4 +2.8 89 +2 +2 1016.5 963.8
штиль 0 11 км 10/10 120 м +4.4 +2.8 89 +3 +3 963.8
В 1 13 км 10/10 150 м +4.4 +2.8 89 +2 +2 963.5
В 1 16 км 10/5 150 м
[Ac]
+4.4 +2.8 89 +2 +2 963.5
С 1 16 км 10/2 150 м
[Ac]
+3.9 +2.2 89 +1 +1 1015.9 963.2
штиль 0 16 км 10/10 150 м +3.9 +2.2 89 +3 +3 1015.2 962.5
СВ 1 16 км 10/5 1470 м
[Ac]
+3.9 +2.2 89 0 0 1014.1 961.5
ЮВ 1 16 км 10/5 1320 м
[Ac]
+3.9 +2.2 89 +1 +1 1013.3 960.9
Ю 1 10 км дымка 10/8 1800 м
[Ac]
+3.9 +2.8 93 +1 +1 1012.8 960.3 +3.9 +5.0
СВ 1 16 км 10/0 2400 м
[Ac]
+5.0 +3.3 89 +1 +1 1012.1 959.6
З 1 16 км 2/2 1800 м +3.9 +1.7 86 0 0 1011.6 959.0
штиль 0 16 км слабый дождь 10/5 1950 м
[Ac]
+6.7 +2.8 76 +6 +6 1010.4 958.3
ЮЗ 2 16 км 10/0 2400 м
[Ac]
+9.4 +2.8 63 +7 +7 1009.3 957.4
ЮЗ 3
{4}
16 км 10/10 1800 м +9.4 +2.8 63 +6 +6 1008.5 956.7
нст 1 16 км 8/8 1800 м +8.9 +2.8 66 +7 +7 1008.0 956.1 +2.8 +10.0 0.3 0.5
СВ 1 16 км слабый дождь 10/10 1650 м +7.2 +3.3 76 +4 +4 1007.3 955.4
В 1 16 км слабый дождь 10/10 1500 м +6.7 +3.9 82 +4 +4 1006.6 954.5
нст 1 16 км 10/10 1500 м +6.1 +3.3 82 +4 +4 1006.3 954.5 0.3
Ю 1 16 км 10/10 1650 м +8.9 +3.3 68 +7 +7 1005.7 953.8
З 3
{4}
16 км 10/8 1950 м
[Ac]
+8.9 +2.8 66 +5 +5 1006.5 954.5
З 2 16 км 10/0 2100 м
[Ac]
+9.4 +2.2 61 +6 +7 1006.9 955.1 +6.1 +9.4 0.3
З 4
{6}
16 км 8/2 1800 м
[Ac]
+10.0 0.0 50 +6 +6 1006.7 955.1
З 4
{7}
16 км 10/5 1800 м
[Ac]
+11.1 -1.1 43 +8 +8 1006.8 955.1
З 4
{6}
16 км слабый дождь 10/5 1950 м
[Ac]
+9.4 0.0 52 +6 +6 1007.1 955.4
З 4
{6}
16 км 10/2 1650 м
[Ac]
+9.4 -0.6 50 +5 +5 1006.8 955.1
З 3
{4}
16 км слабый дождь 10/8 1080 м
[Ac]
+6.7 +1.7 70 +2 +2 1008.2 956.4
З 2 16 км 10/10 1440 м +6.7 -2.2 53 +3 +3 1008.8 957.0 +6.1 +11.7
СЗ 2 16 км 10/10 1500 м +6.7 -3.3 49 +3 +3 1010.0 958.0
З 3
{4}
16 км 2/2 1800 м +5.6 -4.4 49 +1 +1 1011.2 959.0
нст 1 16 км ясно +4.4 -5.0 50 +2 +2 1011.8 959.6
штиль 0 16 км ясно +3.9 -5.0 52 +4 +4 1012.1 959.9
З 1 16 км 2/2 1800 м +2.8 -4.4 59 -1 -1 1012.2 959.9
Ю 1 16 км 2/2 1800 м +2.8 -3.9 61 0 0 1012.5 960.3 +1.7 +6.7
ЮВ 1 16 км 2/2 1800 м +2.2 -3.9 64 -1 -1 1012.6 960.3
Ю 1 16 км 2/2 1800 м +3.9 -5.0 52 +2 +2 1012.4 960.3
штиль 0 16 км ясно +1.1 -4.4 67 0 0 1012.6 960.3
Местоположение метеостанции Lewiston-Nez Perce County Airport: широта 46.3747 долгота -117.0144 высота над уровнем моря 438 м.
В архиве по умолчанию представлена погода в Левистоне за последние 1-2 суток. Обновление информации о фактической погоде в базе происходит ежечасно! Архивные данные за месяц целиком и за предыдущие месяцы Вы можете получить, выбрав интересующий диапазон дат из раскрывающегося списка и нажав кнопку "Ввод!".
Внимание! Архив погоды МЕТАР в базе сайта по станциям, не включенным в климатический монитор, хранится не более 60 дней. Нет смысла пытаться выбрать более раннюю дату.
*Определитесь, кто Вы:
Внимание! Время в таблицах - местное (без учета летнего времени). Для получения всемирного времени необходимо вычесть поправку, которая равна -8 ч.
Смотрите также архив погоды в соседних городах и на ближайших метеорологических станциях:
Партнеры нашего сайта:      
Пояснения к столбцам:
  • Ветер - указаны скорость ветра в м/с - средняя за 10 мин, порывы в срок и между сроками (в фигурных скобках) и направление, откуда дует ветер: С - северный,
  • СВ - северо-восточный, В - восточный, ЮВ - юго-восточный, Ю - южный, ЮЗ - юго-западный, З - западный, СЗ - северо-западный.
  • Видимость - горизонтальная дальность видимости в метрах или километрах. При видимости от 1 до 10 км при отсутствии осадков обычно наблюдается дымка, при ухудшении видимости до 1 км и менее - туман. В сухую погоду видимость может ухудшаться дымом, пылью или мглою.
  • Явления - указаны атмосферные явления, наблюдавшиеся в срок или в последний час перед сроком; фигурными скобками обозначены явления, наблюдавшиеся между сроками (за 1-3 часа до срока); квадратными скобками обозначены град или гололедные отложения с указанием их диаметра в мм.
  • Облачность - указаны через наклонную черту общая и нижняя облачность в баллах и высота нижней границы облаков в метрах; квадратными скобками обозначены формы облаков: Ci - перистые, Cs - перисто-слоистые, Cc - перисто-кучевые, Ac - высококучевые, As - высокослоистые, Sc - слоисто-кучевые, Ns - слоисто-дождевые, Cu - кучевые, Cb - кучево-дождевые. Подробнее классификацию облаков см. в Атласе облаков (PDF).
  • T - Температура воздуха - температура, измеренная на высоте 2 м над землей.
  • Td - Температура точки росы - температура, при понижении до которой содержащийся в воздухе водяной пар достигнет насыщения.
  • f - Относительная влажность воздуха - влажноcть воздуха, измеренная на высоте 2 м над землей.
  • Te - Эффективная температура - температура, которую ощущает одетый по сезону человек в тени. Характеристика душности погоды. При расчете учитывается влияние влажности воздуха и скорости ветра на теплоощущения человека.
  • Tes - Эффективная температура на солнце - температура, которую ощущает человек, с поправкой на солнечный нагрев. Характеристика знойности погоды. Зависит от высоты солнца над горизонтом, облачности и скорости ветра. Ночью, в пасмурную погоду, а также при ветре 12 м/с и более поправка равна нулю.
  • P - Атмосферное давление - приведенное к уровню моря атмосферное давление.
  • Po - Атмосферное давление - измеренное на уровне метеостанции атмосферное давление.
  • Tmin - Минимальная температура - минимум температуры воздуха на высоте 2 м над землей.
  • Tmax - Максимальная температура - максимум температуры воздуха на высоте 2 м над землей.
  • R - Количество осадков - Количество выпавших осадков за период времени, мм. При наведении курсора мыши на число - период времени, за который выпало указанное количество осадков.
  • R24 - Количество осадков - Количество выпавших осадков за 24 часа, мм.
  • S - Снежный покров - Высота снежного покрова, см. При наведении курсора мыши на число - состояние снежного покрова и степень покрытия местности в баллах.